Temp
90 88 89 89 89 87 87 86 86 88 88 87 86 86 86 88 88 86 87 88 86 86 88 88 86 86 91 92 92 91 88 90 86 92 95 95 90 91 94 94 93 93 81
90 78 89 88 84 90 87 87 87 86 88 87 87 87 85 87 88 86 85 87 86 84 86 86 86 90 84 86 86 84 81 84 82 80 87 91 89 91 90 89 92 97 95
90 90 88 88 86 88 90 88 88 87 86 89 87 85 86 87 83 87 86 87 87 87 87 85 87 87 85 88 88 89 91 85 86 84 85 88 88 91 91 89 89 90 92
89 89 88 87 88 90 89 88 88 87 86 86 87 87 86 86 88 87 88 87 87 88 89 89 87 88 86 86 86 86 86 86 86 84 87 89 89 87 87 87 87 83 84
85 84 84 86 86 86 86 86 86 86 86 86 85 86 86 87 90 87 86 85 86 86 88 88 89 87 78 80 86 86 85 85 88 85 84 89 88 90 84 82 81 82 82
83 83 83 83 83 83 83 83 84 84 84 84 83 84 85 89 78 73 80 87 84 83 83 86 87 81 78 70 70 71 79 82 81 85 87 87 84 86 86 81 84 80 75
81 82 82 82 81 81 81 79 79 79 81 82 83 84 83 84 68 67 69 84 86 85 83 85 87 91 83 88 73 69 69 68 71 81 80 82 82 84 83 81 79 79 77
79 77 78 78 77 78 78 77 77 80 79 78 79 82 82 82 67 66 67 76 83 84 84 84 84 85 85 84 85 84 86 86 81 83 83 84 83 84 83 82 80 79 78
76 76 76 76 75 75 74 75 76 75 75 76 77 78 78 80 65 64 67 82 81 81 82 83 84 83 76 68 80 80 83 85 69 65 65 65 65 67 72 81 79 74 75
73 73 75 75 76 76 75 73 73 74 72 72 72 73 68 75 62 61 63 76 80 82 80 83 71 76 65 62 77 78 77 82 83 81 76 68 67 70 65 74 76 71 72
80 80 77 75 75 75 77 76 76 75 76 75 72 72 73 71 72 58 57 69 71 73 81 81 81 61 59 58 60 78 78 77 77 80 80 81 74 73 75 71 70 71 71
80 78 74 76 79 76 75 76 77 76 74 72 73 76 79 76 58 62 56 57 61 66 67 71 68 56 55 55 57 59 59 62 76 75 74 70 67 65 64 65 66 65 63
79 77 77 78 77 77 75 76 77 75 76 74 76 73 72 75 74 57 55 57 58 65 62 57 55 55 56 59 57 59 58 66 68 66 64 62 61 61 60 59 60 60 60
76 76 78 77 76 78 80 80 79 77 76 74 72 72 73 75 72 74 72 67 60 68 63 65 59 58 57 58 59 60 63 62 62 61 59 58 60 61 58 59 59 60 60
79 80 79 79 77 74 72 72 74 70 66 74 75 77 75 72 68 59 62 69 71 61 64 67 66 67 63 60 59 59 59 58 57 57 56 56 57 57 59 60 61 68 70
79 80 81 80 78 76 75 70 49 49 46 46 47 59 71 54 49 48 46 48 50 52 62 61 61 62 62 63 62 60 60 58 57 57 56 57 57 59 62 67 72 74 72
80 79 80 77 79 76 77 77 73 59 47 45 44 45 47 48 45 45 46 48 50 54 61 60 60 60 63 64 64 65 64 62 62 60 60 61 62 65 63 65 68 69 70
79 63 80 81 79 78 79 80 82 76 70 72 50 52 44 44 45 45 46 51 68 64 74 71 70 75 76 76 75 73 68 66 65 64 63 64 64 63 65 66 68 69 70
79 81 82 82 81 78 81 81 83 81 77 76 71 56 52 45 46 47 48 73 69 69 72 71 73 73 71 71 70 73 72 70 68 68 68 68 68 69 69 71 71 60 65
80 69 74 81 79 80 81 82 82 81 80 79 77 77 71 63 70 70 70 72 74 76 72 73 77 79 75 69 70 70 69 70 69 69 69 70 70 72 72 72 72 71 71
83 79 73 82 82 83 82 82 83 83 82 82 82 76 58 76 80 79 74 75 81 82 80 83 80 80 79 78 78 77 75 74 72 73 73 72 73 74 74 74 75 75 75
84 81 81 81 83 82 82 83 83 83 83 82 82 71 48 75 82 82 80 81 82 83 85 82 83 83 84 83 80 80 79 79 78 77 76 76 75 76 75 75 75 76 76
84 83 80 80 83 73 80 83 84 83 84 84 84 81 77 81 83 83 82 84 84 83 84 83 83 83 84 83 83 81 80 80 80 79 78 77 77 77 78 77 77 77 77
84 84 80 80 82 82 83 83 83 69 83 84 84 84 84 83 84 83 84 84 84 84 84 83 83 83 83 83 84 83 83 83 83 81 80 79 79 74 79 78 79 78 79
85 85 84 83 83 82 83 84 84 84 84 84 85 86 86 86 85 85 86 85 85 84 84 84 85 84 83 82 83 83 66 56 74 63 81 79 78 78 79 79 79 79 78
86 85 84 84 84 84 84 83 83 84 84 85 85 86 86 86 87 87 86 86 86 86 86 87 86 85 84 85 84 67 40 44 65 43 76 80 79 79 79 78 78 79 78
MSLP
1011.47 1012.33 1012.81 1013.33 1014.00 1014.62 1014.83 1015.13 1015.38 1015.42 1015.59 1015.99 1016.26 1016.50 1016.62 1016.51 1016.69 1016.98 1017.17 1017.22 1017.64 1017.69 1017.76 1017.63 1018.07 1018.12 1017.58 1017.22 1017.41 1017.45 1017.50 1016.94 1016.76 1015.82 1015.66 1016.12 1016.79 1016.69 1016.30 1016.54 1016.71 1016.79 1017.81
1010.81 1012.11 1012.11 1012.67 1013.25 1013.41 1013.97 1014.27 1014.70 1014.93 1015.16 1015.43 1015.69 1015.84 1016.33 1016.33 1016.49 1016.75 1016.93 1016.79 1017.03 1017.37 1017.34 1017.43 1017.55 1017.47 1017.90 1017.79 1017.65 1017.56 1017.77 1017.68 1017.66 1017.03 1016.56 1016.16 1016.30 1016.31 1016.46 1016.57 1016.33 1015.97 1016.09
1010.12 1010.63 1011.36 1011.91 1012.80 1012.62 1012.73 1013.42 1013.83 1014.23 1014.52 1014.66 1014.94 1015.22 1015.38 1015.59 1015.97 1016.15 1016.35 1016.39 1016.49 1016.74 1016.77 1017.03 1016.93 1016.97 1017.16 1017.13 1017.06 1016.79 1016.43 1017.21 1017.08 1016.93 1016.42 1016.40 1016.32 1016.02 1015.88 1016.23 1016.28 1016.12 1016.41
1009.75 1010.17 1010.39 1010.95 1011.37 1011.70 1012.06 1012.61 1013.08 1013.53 1013.86 1014.10 1014.25 1014.40 1014.68 1014.97 1015.07 1015.40 1015.46 1015.68 1015.85 1015.89 1016.00 1016.09 1016.37 1016.23 1016.38 1016.57 1017.01 1016.90 1016.94 1016.88 1016.65 1016.66 1015.96 1015.53 1015.61 1015.87 1016.11 1015.76 1015.71 1016.16 1016.33
1009.63 1009.99 1010.23 1010.53 1010.97 1011.33 1011.60 1012.08 1012.54 1012.88 1013.08 1013.37 1013.61 1013.74 1013.94 1014.21 1014.37 1014.57 1015.04 1015.30 1015.12 1015.25 1015.25 1015.41 1015.53 1015.56 1015.75 1016.07 1016.51 1016.37 1016.40 1016.48 1015.98 1015.96 1015.75 1014.92 1014.65 1014.46 1015.14 1015.88 1015.91 1015.90 1016.40
1009.38 1009.74 1010.09 1010.35 1010.71 1011.00 1011.37 1011.71 1012.02 1012.36 1012.65 1012.94 1013.06 1013.16 1013.31 1013.36 1013.41 1013.87 1014.13 1014.17 1014.67 1014.92 1014.95 1014.89 1014.95 1015.14 1015.48 1015.70 1015.93 1016.09 1016.06 1016.11 1015.97 1015.56 1014.80 1014.25 1014.46 1014.89 1015.04 1015.64 1015.43 1015.55 1016.09
1009.36 1009.60 1009.88 1010.09 1010.42 1010.68 1011.00 1011.39 1011.64 1012.02 1012.18 1012.25 1012.42 1012.67 1012.92 1013.17 1013.49 1013.96 1014.25 1014.13 1013.95 1013.90 1014.30 1014.21 1014.09 1014.07 1014.39 1014.72 1015.10 1015.44 1015.61 1015.72 1015.70 1015.41 1015.30 1014.91 1014.76 1014.87 1015.11 1015.25 1015.50 1015.58 1015.83
1009.22 1009.67 1009.99 1010.16 1010.39 1010.60 1010.94 1011.23 1011.55 1011.61 1011.77 1011.96 1012.21 1012.38 1012.67 1013.07 1013.59 1013.85 1014.16 1014.03 1013.59 1013.39 1013.40 1013.62 1013.72 1013.77 1013.82 1013.91 1014.14 1014.38 1014.35 1014.37 1014.77 1015.04 1014.77 1014.66 1014.89 1014.82 1014.63 1014.87 1015.20 1015.62 1016.07
1009.42 1009.69 1009.99 1010.22 1010.45 1010.67 1010.91 1011.08 1011.22 1011.53 1011.72 1011.87 1012.03 1012.20 1012.48 1012.87 1013.46 1013.71 1013.97 1013.53 1013.17 1013.02 1013.03 1013.13 1013.11 1013.25 1013.33 1013.74 1013.89 1013.86 1013.62 1013.42 1014.09 1014.49 1014.65 1014.71 1014.92 1015.01 1014.94 1015.01 1014.91 1015.49 1015.47
1009.48 1009.89 1010.13 1010.21 1010.39 1010.60 1010.80 1011.08 1011.38 1011.59 1011.77 1012.07 1012.31 1012.48 1012.59 1012.86 1013.30 1013.67 1013.96 1013.73 1012.81 1012.58 1012.58 1012.51 1012.82 1013.02 1013.04 1013.33 1013.52 1013.25 1013.08 1012.69 1013.02 1013.51 1014.45 1014.93 1014.94 1015.00 1015.40 1015.27 1015.05 1015.27 1015.51
1009.30 1009.63 1010.12 1010.61 1010.77 1010.79 1010.75 1010.94 1011.13 1011.27 1011.46 1011.85 1012.27 1012.64 1012.77 1013.14 1013.30 1013.83 1013.90 1013.82 1013.45 1013.04 1012.14 1011.98 1012.15 1012.85 1013.19 1013.46 1013.42 1013.09 1012.38 1012.35 1012.35 1012.78 1013.27 1013.76 1014.44 1014.64 1014.92 1015.14 1015.37 1015.43 1015.52
1009.33 1009.70 1010.34 1010.50 1010.51 1010.95 1010.91 1010.93 1010.99 1011.31 1011.70 1012.09 1012.14 1012.13 1012.30 1012.89 1013.61 1013.64 1013.85 1013.94 1013.79 1013.67 1013.43 1013.25 1013.28 1013.41 1013.55 1013.45 1013.37 1013.15 1012.92 1012.79 1012.27 1012.39 1012.69 1013.41 1014.30 1015.03 1015.49 1015.60 1015.91 1016.07 1016.29
1009.35 1009.72 1010.03 1010.24 1010.58 1010.77 1010.96 1010.96 1011.16 1011.67 1011.84 1012.01 1012.07 1012.16 1012.51 1012.81 1013.11 1013.68 1013.82 1013.77 1013.69 1013.71 1013.81 1013.75 1013.65 1013.58 1013.69 1013.57 1013.44 1012.96 1012.71 1012.63 1012.25 1012.81 1013.42 1013.99 1014.69 1015.41 1015.97 1016.46 1016.48 1016.64 1016.68
1009.41 1009.75 1010.10 1010.38 1010.61 1010.69 1010.73 1010.83 1011.21 1011.63 1012.03 1012.24 1012.49 1012.47 1012.66 1012.71 1012.95 1013.25 1013.54 1013.82 1014.03 1013.93 1014.08 1014.13 1014.07 1013.98 1013.99 1013.90 1013.75 1013.51 1012.87 1012.85 1013.11 1013.69 1014.04 1014.35 1014.65 1015.56 1016.02 1016.32 1016.66 1016.75 1016.48
1009.35 1009.64 1009.93 1010.24 1010.61 1011.24 1011.86 1012.22 1012.27 1012.66 1013.00 1012.80 1012.61 1012.23 1012.60 1013.01 1013.55 1013.93 1013.94 1013.78 1013.85 1014.28 1014.26 1014.17 1014.06 1013.93 1014.43 1014.55 1014.34 1014.07 1013.77 1013.49 1013.95 1014.53 1015.19 1014.88 1015.00 1015.51 1015.96 1016.12 1015.50 1015.92 1016.33
1009.28 1009.48 1009.57 1009.96 1010.57 1011.11 1011.64 1012.78 1013.51 1013.61 1013.63 1013.56 1013.50 1013.30 1013.14 1013.75 1014.12 1014.21 1014.23 1014.26 1014.35 1014.43 1014.42 1014.44 1014.46 1014.42 1014.45 1014.48 1014.59 1014.70 1014.60 1014.53 1014.93 1014.38 1015.36 1015.89 1015.49 1015.77 1016.18 1015.61 1015.28 1015.38 1015.69
1009.02 1009.26 1009.56 1009.90 1010.21 1010.77 1010.92 1011.28 1012.29 1013.90 1013.93 1013.86 1013.82 1013.74 1013.74 1014.06 1014.28 1014.30 1014.27 1014.13 1014.09 1014.12 1014.14 1014.27 1014.38 1014.38 1014.35 1014.36 1014.38 1014.46 1014.61 1014.70 1015.00 1015.18 1015.35 1015.81 1015.66 1015.84 1016.15 1015.97 1015.84 1015.83 1015.70
1009.06 1009.41 1009.36 1009.50 1010.03 1010.48 1010.62 1010.63 1010.74 1011.71 1012.52 1012.99 1013.89 1013.94 1014.16 1014.23 1014.34 1014.42 1014.39 1014.17 1013.62 1013.78 1013.14 1013.44 1013.37 1013.17 1013.48 1013.57 1013.72 1013.92 1014.51 1014.70 1015.05 1015.19 1015.44 1015.65 1015.84 1016.00 1015.97 1015.93 1015.95 1015.73 1015.67
1008.83 1009.11 1008.71 1009.24 1009.68 1009.81 1010.11 1010.15 1010.24 1010.67 1011.15 1011.97 1013.01 1013.97 1014.18 1014.31 1014.33 1014.28 1014.16 1013.35 1013.07 1012.96 1012.89 1012.99 1013.04 1013.07 1013.34 1013.55 1013.83 1013.85 1014.12 1014.39 1014.77 1014.97 1015.16 1015.34 1015.51 1015.56 1015.41 1015.37 1015.41 1015.42 1015.77
1008.23 1008.70 1008.65 1009.05 1009.76 1009.75 1009.79 1009.74 1009.94 1010.20 1010.40 1010.80 1011.42 1011.97 1013.17 1013.80 1013.38 1013.28 1013.17 1012.80 1012.48 1012.36 1012.64 1012.52 1012.28 1012.33 1012.86 1013.53 1013.77 1013.96 1014.25 1014.47 1014.71 1014.80 1014.89 1015.01 1015.15 1014.98 1015.01 1015.16 1015.26 1015.50 1015.53
1007.49 1008.55 1008.60 1008.66 1009.07 1009.09 1009.20 1009.26 1009.39 1009.49 1009.61 1009.97 1010.29 1011.14 1011.95 1012.01 1011.46 1011.57 1011.85 1011.82 1011.41 1011.27 1011.64 1011.65 1012.01 1012.18 1012.42 1012.67 1012.74 1013.04 1013.43 1013.64 1014.03 1014.22 1014.44 1014.75 1014.83 1014.66 1014.86 1014.79 1014.67 1014.83 1014.76
1006.83 1007.77 1008.22 1008.20 1008.40 1008.80 1008.76 1008.91 1009.08 1009.23 1009.35 1009.69 1010.05 1011.65 1012.39 1011.70 1010.88 1010.90 1010.97 1011.02 1011.15 1011.51 1011.49 1011.78 1011.61 1011.61 1011.76 1012.08 1012.40 1012.45 1012.54 1012.68 1013.05 1013.46 1013.74 1014.01 1014.23 1014.17 1014.28 1014.28 1014.26 1014.27 1014.30
1006.43 1007.17 1007.68 1007.90 1008.09 1008.57 1009.02 1008.66 1008.66 1008.94 1009.04 1009.22 1009.44 1010.39 1011.09 1010.49 1010.22 1010.33 1010.53 1010.64 1010.91 1011.18 1011.35 1011.47 1011.46 1011.32 1011.40 1011.75 1012.01 1012.20 1012.18 1012.25 1012.55 1012.90 1013.11 1013.29 1013.46 1013.54 1013.56 1013.54 1013.57 1013.63 1013.72
1006.32 1006.77 1007.25 1007.57 1007.91 1008.31 1008.17 1008.30 1008.43 1008.85 1008.63 1008.78 1009.01 1009.21 1009.40 1009.57 1009.63 1009.93 1010.17 1010.35 1010.64 1010.81 1010.98 1011.08 1011.11 1011.13 1011.22 1011.53 1011.60 1011.92 1012.01 1012.13 1012.35 1012.65 1012.82 1012.85 1012.92 1013.19 1013.09 1013.03 1012.92 1012.96 1013.05
1006.08 1006.31 1006.56 1006.90 1007.41 1007.90 1007.69 1007.82 1008.14 1008.25 1008.58 1008.59 1008.52 1008.57 1008.60 1008.83 1009.05 1009.32 1009.62 1009.90 1010.07 1010.21 1010.33 1010.53 1010.58 1010.63 1011.01 1011.26 1011.21 1011.35 1011.68 1012.35 1012.45 1012.39 1012.64 1012.59 1012.66 1012.68 1012.65 1012.65 1012.51 1012.45 1012.64
1005.48 1005.98 1006.33 1006.62 1006.97 1007.25 1007.29 1007.63 1007.78 1007.96 1008.02 1008.09 1008.14 1008.32 1008.50 1008.50 1008.56 1008.73 1009.05 1009.33 1009.47 1009.56 1009.74 1009.71 1009.84 1010.28 1010.38 1010.60 1010.93 1011.24 1012.12 1012.30 1012.53 1012.92 1012.48 1012.18 1012.30 1012.27 1012.17 1012.17 1012.15 1012.02 1012.06
Wind_Speed
16 15 16 16 16 15 14 14 14 13 12 11 11 10 11 12 12 11 11 10 11 10 10 7 9 9 9 9 5 5 7 7 8 7 3 4 4 6 4 4 5 6 10
14 7 14 12 10 16 15 16 14 14 13 13 12 12 11 13 11 11 13 11 13 12 12 11 12 9 10 9 7 7 5 5 6 9 9 9 5 7 5 6 7 7 5
15 16 17 16 16 17 16 16 15 15 14 14 14 14 13 13 10 12 12 12 12 13 13 11 13 11 10 9 7 7 7 7 8 9 8 7 7 7 6 8 7 7 3
13 14 15 16 17 17 16 14 15 14 14 14 15 15 15 14 14 13 13 14 13 13 13 12 12 14 12 10 10 10 8 7 7 9 9 8 8 8 7 7 7 5 4
13 13 13 13 13 14 13 13 14 14 14 15 14 16 15 14 12 14 12 13 13 14 14 13 14 14 10 10 8 10 9 9 9 8 9 9 9 8 4 4 7 3 5
12 13 12 12 12 13 13 13 14 15 14 14 14 15 15 12 12 10 11 12 12 12 13 13 13 10 10 10 10 11 10 10 10 10 10 9 7 8 8 6 8 6 6
10 10 10 10 11 12 12 10 10 10 12 13 13 13 14 12 2 4 7 11 14 14 13 13 12 12 13 13 14 15 11 12 14 11 11 12 10 8 9 8 9 7 7
8 7 7 7 7 7 8 9 9 11 11 9 11 12 11 10 6 7 6 8 12 15 15 15 14 14 12 10 12 12 13 13 13 12 15 14 11 10 9 7 7 6 2
7 5 5 4 5 5 6 7 6 5 6 6 8 10 10 10 7 7 6 11 11 12 12 14 15 15 13 12 14 13 14 13 6 3 4 4 1 3 4 5 7 7 7
7 6 5 5 6 6 5 5 3 3 3 3 3 3 2 6 4 3 6 9 12 10 9 13 12 15 11 7 13 13 14 15 12 11 7 3 5 4 3 7 4 7 5
11 9 8 6 6 5 6 5 5 4 4 4 5 3 3 1 3 1 2 7 7 8 10 9 9 5 6 7 10 15 14 9 10 10 10 9 7 7 5 3 3 3 4
9 9 7 6 5 5 6 6 5 5 5 4 4 3 3 1 3 3 4 6 4 3 5 6 6 8 4 5 5 9 11 7 8 7 5 4 6 4 3 3 3 3 3
10 9 8 7 5 5 5 5 5 4 3 3 1 1 1 0 1 4 6 4 3 2 1 2 6 7 5 4 10 6 7 4 3 4 3 3 4 5 6 5 7 7 7
10 9 7 7 6 5 4 4 3 4 3 2 2 1 0 0 1 2 3 4 4 4 4 4 6 5 6 5 4 4 5 4 5 3 4 6 7 6 5 5 4 5 5
9 8 7 6 6 5 5 5 2 5 4 1 1 1 1 1 4 4 4 1 2 3 2 2 2 2 5 4 5 5 4 5 5 6 5 2 6 5 3 4 6 6 6
9 7 5 5 6 5 6 7 10 8 5 6 6 6 5 7 6 7 8 9 8 4 2 2 3 3 2 2 3 3 4 6 3 7 5 3 5 6 4 4 3 5 6
7 5 6 5 6 6 6 6 7 4 4 7 7 7 8 8 7 8 8 7 6 4 3 3 2 2 3 3 3 3 3 5 6 5 5 4 4 4 3 4 4 6 7
7 3 7 7 7 6 6 5 4 7 6 6 6 5 6 7 6 4 1 4 6 5 4 4 3 2 1 1 2 3 5 5 5 5 5 5 5 5 6 6 6 6 7
8 8 7 7 7 5 6 6 5 3 5 6 7 4 4 4 4 3 4 2 1 2 3 1 1 2 3 1 1 2 2 4 4 5 5 6 6 6 6 6 5 3 6
10 6 6 7 7 7 6 6 5 4 4 6 6 6 8 5 6 6 6 4 4 1 2 5 4 4 6 4 3 4 3 5 5 5 5 5 5 6 7 7 7 7 6
9 11 6 7 8 7 6 5 4 4 4 4 5 6 7 6 3 4 5 6 4 4 5 2 4 3 3 3 4 5 6 6 5 5 5 5 6 6 6 6 6 6 6
9 10 10 8 7 6 6 5 5 5 4 5 6 7 5 6 3 3 4 4 5 2 3 2 3 3 2 2 3 4 4 5 6 6 6 7 7 6 6 5 6 6 6
10 11 9 7 7 6 5 6 6 6 6 5 5 8 7 5 4 4 4 4 3 3 4 4 3 3 3 4 4 4 5 5 5 6 7 7 7 7 7 7 8 8 8
9 11 10 9 7 8 8 7 6 2 3 6 6 5 5 5 4 5 4 4 5 5 4 4 4 5 4 5 5 5 5 4 5 6 7 6 6 6 7 7 7 8 8
11 9 8 8 9 9 7 7 8 8 8 6 4 4 4 5 4 4 5 5 5 5 6 5 6 6 8 8 8 7 6 9 7 3 7 7 8 8 8 8 8 9 10
9 9 8 8 8 9 7 8 6 7 7 6 5 4 4 4 5 5 5 5 5 6 6 6 6 8 7 9 11 8 10 12 11 9 9 9 9 9 9 11 13 10 11
Wind_Direction
196 204 212 208 213 213 219 220 227 230 230 229 225 226 231 225 221 219 230 255 226 229 251 250 242 267 270 223 260 241 252 265 288 281 321 233 267 262 289 242 206 228 167
199 197 217 216 219 211 216 218 221 225 229 228 232 233 225 233 234 241 242 228 237 239 233 237 241 233 232 260 235 269 294 238 257 264 279 285 230 270 271 273 267 262 280
210 204 215 204 212 225 215 218 219 221 226 232 225 230 234 228 223 237 240 245 238 238 244 238 244 240 238 251 254 281 236 218 232 249 269 244 273 284 248 230 253 248 274
210 216 214 214 221 220 222 221 221 221 226 231 236 235 231 236 235 231 232 231 237 244 252 252 248 240 231 227 239 244 247 260 254 256 264 252 231 227 252 269 251 211 253
208 210 220 221 218 226 225 227 222 224 225 231 237 239 237 234 234 228 236 249 242 241 244 245 242 242 228 238 217 231 257 248 256 239 249 254 257 256 256 241 254 218 206
201 210 215 216 219 220 223 227 229 229 233 233 233 231 232 235 233 208 230 236 239 247 256 240 247 247 235 225 223 253 257 245 252 270 262 265 280 280 245 250 252 242 233
198 207 214 214 220 221 223 222 224 228 232 227 230 227 232 232 266 234 211 249 253 241 241 252 241 245 217 238 220 228 235 236 243 254 254 266 279 267 266 260 264 261 244
173 186 201 210 216 216 217 214 211 220 225 223 223 227 231 237 190 209 223 252 253 249 246 246 246 248 248 249 244 241 239 234 221 232 237 251 255 262 256 261 262 257 141
156 167 181 188 195 202 210 216 218 228 237 238 230 226 229 237 192 212 205 244 250 250 249 250 250 248 243 217 238 238 253 255 141 74 39 59 92 356 320 236 238 220 234
141 139 158 175 184 176 160 148 148 190 167 168 204 277 352 254 155 205 221 256 258 255 246 246 232 253 274 249 238 238 241 247 239 214 210 199 198 186 237 242 275 240 235
149 143 134 134 135 149 138 153 164 162 155 160 139 157 177 232 171 87 269 258 262 286 280 275 283 153 252 227 222 262 248 273 246 238 219 211 186 183 170 195 343 296 253
137 127 129 132 129 142 138 145 142 142 138 149 157 183 147 104 87 73 323 261 273 266 293 314 22 38 13 321 272 263 286 288 257 230 218 161 146 128 109 110 83 83 59
148 142 140 147 143 120 135 147 159 154 181 160 208 90 144 66 101 93 42 8 273 233 69 106 103 74 44 25 3 277 242 229 150 140 133 112 110 119 112 90 98 83 92
156 153 155 164 157 155 171 150 162 158 169 176 157 213 121 172 53 62 90 88 83 94 112 63 67 62 58 38 17 358 39 69 55 51 133 126 128 135 126 143 108 125 105
164 165 167 159 182 126 60 20 47 54 353 304 185 262 220 166 74 50 11 26 119 89 77 84 22 54 34 10 20 26 39 73 85 110 62 49 97 107 135 198 144 173 152
177 179 173 163 175 160 161 126 50 41 38 43 29 356 104 62 112 108 96 94 99 83 65 49 31 34 63 32 57 53 63 88 104 101 110 131 123 127 158 156 182 168 153
207 170 159 185 181 170 177 169 153 107 76 68 58 54 54 100 120 125 136 135 137 138 121 131 150 200 202 162 150 116 83 89 115 119 129 148 143 141 149 167 170 170 151
203 125 175 181 171 179 186 194 166 163 173 148 73 58 94 115 117 117 142 240 156 211 164 164 182 135 91 139 131 110 125 134 135 144 136 144 143 163 172 167 169 159 150
189 188 186 169 185 172 182 183 186 167 161 135 139 177 142 152 156 182 243 252 227 167 145 128 174 161 137 168 107 137 152 145 157 163 164 171 176 184 178 174 152 133 170
187 162 176 169 149 184 177 186 174 187 181 164 178 161 161 177 195 192 210 220 203 169 180 203 195 150 153 141 183 159 179 177 175 186 176 177 183 193 181 180 170 173 196
179 163 210 183 182 179 182 190 189 187 188 191 164 93 88 211 205 198 179 201 206 174 179 160 141 158 164 186 181 187 178 176 186 185 173 186 184 187 190 189 189 204 190
164 166 185 197 183 184 190 198 191 200 185 175 131 122 149 238 209 198 184 182 171 195 171 187 232 202 171 203 192 224 203 194 178 186 184 182 185 190 195 198 206 206 203
161 183 179 189 188 139 177 213 191 188 182 178 153 143 181 211 185 190 179 204 187 207 200 223 234 250 192 210 204 211 224 204 186 192 189 193 194 203 203 208 210 213 215
174 179 176 186 187 187 191 194 187 225 249 183 180 176 175 177 187 183 220 194 199 209 217 226 238 249 218 228 201 213 216 213 199 189 222 209 216 188 241 227 229 229 231
177 190 184 186 166 221 168 207 196 188 191 217 212 216 205 195 197 190 193 204 208 215 210 223 229 214 216 229 249 218 134 133 235 307 196 237 235 231 230 239 234 240 228
184 181 188 186 191 194 187 194 211 211 212 215 218 211 240 240 223 216 209 217 218 215 229 221 221 230 234 219 223 221 151 177 205 240 250 230 230 233 237 232 243 240 235